EHI
2 2 2 2 5 12 16 14 9 5 3 2 2 1 0 0 1 2 2 1 0 0 0 0 0 0 0 0 0 0 0 0 0 0 0 0 0 0 0 0 0 0 0
3 2 1 1 3 7 9 7 5 2 1 1 1 0 0 0 0 1 1 0 0 0 0 0 0 0 0 0 0 0 0 0 0 0 0 0 0 0 0 0 0 0 0
1 1 0 0 1 2 3 2 1 0 0 0 0 0 0 0 0 0 0 0 0 0 0 0 0 0 0 0 0 0 0 0 0 0 0 0 0 0 0 0 0 0 0
0 0 0 0 0 0 0 0 0 0 0 0 0 0 0 0 0 0 0 0 0 0 0 0 0 0 0 0 0 0 0 0 0 0 0 0 0 0 0 0 0 0 0
0 0 0 0 0 0 0 0 0 0 0 0 0 0 0 0 0 0 0 0 0 0 0 0 0 0 0 0 0 0 0 0 0 0 0 0 0 0 0 0 0 0 0
0 0 0 0 0 0 0 0 0 0 0 0 0 0 0 0 0 0 0 0 0 0 0 0 0 0 0 0 0 0 0 0 0 0 0 0 0 0 0 0 0 0 0
0 0 0 0 0 0 0 0 0 0 0 0 0 0 0 0 0 0 0 0 0 0 0 0 0 0 0 0 0 0 0 0 0 0 0 0 0 0 0 0 0 0 0
0 0 0 0 0 0 0 0 0 0 0 0 0 0 0 0 0 0 0 0 0 0 0 0 0 0 0 0 0 0 0 0 0 0 0 0 0 0 0 0 0 0 0
0 0 0 0 0 0 0 0 0 0 0 0 0 0 0 0 0 0 0 0 0 0 0 0 0 0 0 0 0 0 0 0 0 0 0 0 0 0 0 0 0 0 0
0 0 0 0 0 0 0 0 0 0 0 0 0 0 0 0 0 0 0 0 0 0 0 0 0 0 0 0 0 0 0 0 0 0 0 0 0 0 0 0 0 0 0
0 0 0 0 0 0 0 0 0 0 0 0 0 0 0 0 0 0 0 0 0 0 0 0 0 0 0 0 0 0 0 0 0 0 0 0 0 0 0 0 0 0 0
0 0 0 0 0 0 0 0 0 0 0 0 0 0 0 0 0 0 0 0 0 0 0 0 0 0 0 0 0 0 0 0 0 0 0 0 0 0 0 0 0 0 0
0 0 0 0 0 0 0 0 0 0 0 0 0 0 0 0 0 0 0 0 0 0 0 0 0 0 0 0 0 0 0 0 0 0 0 0 0 0 0 0 0 0 0
0 0 0 0 0 0 0 0 0 0 0 0 0 0 0 0 0 0 0 0 0 0 0 0 0 0 0 0 0 0 0 0 0 0 0 0 0 0 0 0 0 0 0
0 0 0 0 0 0 0 0 0 0 0 0 0 0 0 0 0 0 0 0 0 0 0 0 0 0 0 0 0 0 0 0 0 0 0 0 0 0 0 0 0 0 0
0 0 0 0 0 0 0 0 0 0 0 0 0 0 0 0 0 0 0 0 0 0 0 0 0 0 0 0 0 0 0 0 0 0 0 0 0 0 0 0 0 0 0
0 0 0 0 0 0 0 0 0 0 0 0 0 0 0 0 0 0 0 0 0 0 0 0 0 0 0 0 0 0 0 0 0 0 0 0 0 0 0 0 0 0 0
0 0 0 0 0 0 0 0 0 0 0 0 0 0 0 0 0 0 0 0 0 0 0 0 0 0 0 0 0 0 0 0 0 0 0 0 0 0 0 0 0 0 0
0 0 0 0 0 0 0 0 0 0 0 0 0 0 0 0 0 0 0 0 0 0 0 0 0 0 0 0 0 0 0 0 0 0 0 0 0 0 0 0 0 0 0
0 0 0 0 0 0 0 0 0 0 0 0 0 0 0 0 0 0 0 0 0 0 0 0 0 0 0 0 0 0 0 0 0 0 0 0 0 0 0 0 0 0 0
0 0 0 0 0 0 0 0 0 0 0 0 0 0 0 0 0 0 0 0 0 0 0 0 0 0 0 0 0 0 0 0 0 0 0 0 0 0 0 0 0 0 0
0 0 0 0 0 0 0 0 0 0 0 0 0 0 0 0 0 0 0 0 0 0 0 0 0 0 0 0 0 0 0 0 0 0 0 0 0 0 0 0 0 0 0
0 0 0 0 0 0 0 0 0 0 0 0 0 0 0 0 0 0 0 0 0 0 0 0 0 0 0 0 0 0 0 0 0 0 0 0 0 0 0 0 0 0 0
0 0 0 0 0 0 0 0 0 0 0 0 0 0 0 0 0 0 0 0 0 0 0 0 0 0 0 0 0 0 0 0 0 0 0 0 0 0 0 0 0 0 0
0 0 0 0 0 0 0 0 0 0 0 0 0 0 0 0 0 0 0 0 0 0 0 0 0 0 0 0 0 0 0 0 0 0 0 0 0 0 0 0 0 0 0
0 0 0 0 0 0 0 0 0 0 0 0 0 0 0 0 0 0 0 0 0 0 0 0 0 0 0 0 0 0 0 0 0 0 0 0 0 0 0 0 0 0 0
Wind_Speed
8 7 7 5 3 1 1 3 5 5 6 7 7 6 6 6 5 5 5 5 5 4 3 3 3 3 2 2 2 3 3 4 7 7 7 7 8 9 8 7 5 5 5
6 6 5 4 3 3 5 6 6 7 7 7 6 6 5 5 5 6 6 6 6 5 5 4 4 3 2 3 3 3 3 3 6 8 8 7 8 8 8 7 5 4 4
4 4 5 5 4 5 6 6 7 8 7 6 6 6 5 5 6 6 7 7 7 7 6 6 5 5 4 4 4 4 4 4 4 6 6 6 6 7 8 7 6 4 5
2 3 4 5 4 5 6 7 7 7 7 6 5 5 5 6 7 7 7 8 8 8 7 6 6 6 6 5 4 4 5 6 4 5 5 6 6 8 7 7 6 4 5
0 2 3 3 4 5 6 7 6 6 6 6 6 6 6 6 6 7 8 8 8 8 7 7 8 7 6 6 6 7 7 7 6 6 6 6 7 8 8 7 8 7 5
1 2 3 4 5 5 6 6 6 6 6 6 6 6 6 6 7 5 5 9 8 8 7 6 6 5 3 2 1 3 5 7 8 8 7 8 8 9 9 8 8 7 5
2 4 4 5 6 6 6 6 7 7 6 6 6 6 7 7 5 5 4 6 8 7 6 4 5 7 6 5 1 5 3 2 2 7 8 9 9 10 11 11 9 8 6
3 4 5 6 7 7 7 7 7 6 6 6 6 7 7 7 5 5 3 7 7 7 6 6 6 7 8 9 6 6 5 5 4 6 7 7 8 9 10 10 9 8 4
4 4 6 6 7 8 8 8 7 7 7 6 7 7 7 7 4 3 3 6 6 7 6 7 6 7 9 11 6 6 6 5 2 2 4 6 8 8 9 9 10 9 7
4 4 6 6 7 8 8 8 7 7 7 7 7 7 8 7 4 1 5 4 6 6 6 7 10 8 8 11 7 7 7 8 8 6 3 4 5 4 4 7 9 9 8
4 5 6 6 7 8 8 7 8 8 8 7 8 7 7 7 6 4 6 1 3 4 4 5 7 6 6 7 7 7 7 10 9 7 6 6 7 6 8 8 8 8 8
5 6 7 7 7 8 8 8 8 9 9 8 8 8 7 7 5 5 7 7 5 3 3 5 7 3 3 4 5 6 9 10 6 6 7 7 8 8 8 9 9 8 6
7 7 7 8 7 8 9 9 9 8 8 8 8 8 8 7 7 5 5 4 4 3 5 6 3 1 3 3 2 5 7 6 7 7 7 7 7 8 8 7 7 7 7
8 8 8 8 8 8 7 8 8 8 8 7 7 7 7 7 7 7 7 6 6 5 5 6 7 6 3 1 1 2 5 6 6 7 7 7 7 7 7 8 8 8 7
9 9 9 9 8 8 7 4 5 5 3 4 6 7 8 8 6 5 1 3 3 4 1 4 3 2 2 3 3 4 5 5 5 6 6 7 7 7 7 8 7 8 7
9 9 8 8 8 8 8 7 8 6 7 6 6 2 6 9 12 7 6 5 3 2 4 2 2 2 3 4 4 4 4 5 6 6 6 7 7 7 7 7 7 7 8
11 10 8 8 9 8 9 9 9 6 4 3 2 3 6 12 11 8 5 3 2 4 5 2 2 2 2 3 3 4 5 5 5 5 6 7 7 7 7 7 7 8 7
12 11 9 8 9 9 9 9 10 11 10 9 7 6 8 10 10 9 7 5 7 7 5 2 2 1 0 2 3 4 4 4 4 5 5 6 6 7 7 7 7 9 9
13 10 10 10 10 9 10 10 10 11 11 11 11 11 10 9 8 7 7 8 7 6 5 4 3 3 2 0 1 2 3 3 4 4 4 5 6 6 6 7 7 6 7
12 12 11 10 10 10 10 11 10 11 11 11 11 12 13 11 10 11 10 10 8 7 6 5 5 4 3 2 2 2 2 1 1 3 3 4 5 5 6 7 7 7 7
13 13 13 11 11 11 11 11 11 11 11 11 11 11 13 12 12 12 11 11 10 9 7 6 6 6 6 5 4 4 4 2 1 2 2 3 4 5 5 5 6 6 7
12 12 14 14 12 12 12 11 12 12 12 12 10 11 13 11 10 10 10 10 10 9 8 7 7 6 7 7 6 5 5 3 2 1 1 1 2 3 4 5 6 6 7
12 13 14 14 13 12 12 12 12 12 12 12 12 11 12 12 11 11 10 10 9 8 8 7 8 8 7 7 7 7 6 5 3 2 2 2 1 2 3 4 5 6 6
14 14 14 14 14 13 14 14 13 13 13 13 12 12 11 12 12 12 11 10 9 9 8 8 9 10 11 9 8 8 7 5 5 5 5 3 2 1 2 3 4 6 6
14 14 14 14 14 14 14 14 14 14 13 13 12 12 12 12 12 12 11 10 11 10 11 11 9 10 12 14 12 8 8 8 4 3 6 4 3 2 3 3 3 5 5
14 14 14 13 13 13 13 14 14 14 13 13 13 12 12 12 12 12 11 11 10 10 11 10 12 12 12 12 13 11 12 11 8 4 5 5 5 3 3 3 4 4 4
Wind_Direction
332 328 323 319 307 269 125 107 110 109 109 115 117 124 135 142 151 158 142 144 140 124 120 106 82 30 2 340 328 315 315 312 303 313 321 329 323 315 316 304 287 260 221
339 341 349 357 24 72 86 89 96 98 97 101 108 116 123 130 141 143 136 127 121 112 99 91 79 72 46 6 344 340 334 315 302 313 320 326 327 328 324 311 304 278 266
348 7 23 29 41 66 78 82 86 90 89 91 103 110 118 127 129 122 119 114 105 98 92 86 74 59 40 33 356 358 341 333 320 308 321 337 337 350 335 327 319 309 281
11 45 47 51 59 74 82 82 85 89 93 93 97 110 121 121 117 115 113 106 101 96 88 81 68 55 37 14 8 2 349 331 332 323 343 348 354 354 344 341 333 324 298
45 93 90 99 99 95 94 92 92 96 100 105 110 113 117 118 109 112 117 113 110 106 98 85 71 59 39 6 4 1 352 342 344 345 351 358 3 354 353 341 335 329 313
204 152 131 122 119 115 112 109 107 105 105 110 112 115 112 92 67 64 104 114 112 107 100 98 107 81 80 147 72 8 360 353 354 343 358 360 358 353 345 334 339 338 331
204 172 156 150 139 136 134 132 128 125 123 123 123 116 102 89 81 79 74 114 108 98 93 76 59 58 17 21 108 185 151 154 306 323 357 357 350 353 337 334 341 333 325
206 180 169 170 156 149 148 145 142 138 135 131 127 118 110 101 102 118 122 118 108 101 89 75 63 50 27 351 3 23 30 42 18 0 360 350 355 343 330 320 320 317 320
212 183 173 170 160 156 154 150 146 140 137 137 132 126 118 113 113 160 223 131 119 106 88 64 48 55 20 343 360 19 17 15 149 206 268 282 284 288 307 328 339 335 340
210 188 174 174 168 159 153 152 147 145 145 141 131 128 122 116 101 337 283 148 129 127 118 107 70 43 19 357 5 14 9 357 342 334 299 284 302 317 300 340 344 340 341
207 187 180 176 168 156 150 150 152 151 145 137 132 125 119 114 109 48 354 106 131 133 118 101 82 49 30 7 357 19 352 315 316 331 341 349 351 356 356 357 354 342 342
209 196 182 174 170 155 154 156 157 152 151 149 148 143 134 128 105 86 55 41 5 100 88 83 87 58 27 10 19 358 315 308 334 349 353 355 354 357 354 347 346 338 331
209 199 183 174 171 162 164 163 164 169 173 167 168 163 150 138 125 115 99 74 23 69 83 76 79 246 252 177 85 312 317 355 358 358 360 356 351 351 340 340 342 336 320
208 195 183 177 173 170 175 177 179 179 182 177 177 168 155 156 157 160 158 157 164 159 144 154 197 227 248 20 313 338 16 24 357 359 357 352 348 350 352 353 350 347 342
206 196 189 185 177 171 179 169 191 167 164 187 179 171 168 168 126 78 120 133 116 87 183 173 162 121 74 50 37 27 11 13 4 2 356 353 353 353 355 357 354 350 352
203 197 193 186 177 179 170 158 58 67 79 53 32 34 118 114 124 115 92 76 65 342 270 153 98 60 39 28 17 18 23 20 2 354 357 353 352 353 352 353 358 359 355
206 197 197 192 180 187 183 178 166 136 98 105 98 60 110 136 146 152 154 159 201 253 240 155 112 73 40 27 15 11 14 23 359 353 358 354 350 351 354 355 359 358 356
205 194 199 198 192 190 189 189 183 175 174 174 175 172 155 159 166 173 176 199 204 218 230 183 168 161 17 11 17 12 4 7 6 357 1 355 350 350 355 354 360 1 349
201 197 197 199 196 196 193 195 192 186 182 176 169 167 177 173 180 190 201 232 233 210 207 200 198 207 225 211 33 350 345 359 4 341 360 354 349 348 355 352 355 2 342
200 197 192 199 198 197 196 197 194 189 189 183 181 177 170 183 197 194 208 228 239 235 228 219 207 213 217 213 219 251 277 320 329 328 3 350 349 349 351 351 353 351 354
194 185 188 203 203 199 198 199 196 194 194 192 192 182 174 194 207 208 205 211 223 230 230 229 223 202 207 212 217 222 245 256 299 339 344 348 350 350 347 352 355 355 358
194 187 189 204 203 200 200 201 200 199 200 201 198 177 171 211 220 219 219 217 219 224 231 229 233 222 211 211 207 218 230 227 216 230 274 321 334 342 351 358 1 359 1
199 195 189 197 201 195 200 204 203 203 205 205 207 199 186 210 226 231 232 232 229 226 223 223 232 235 217 203 206 212 223 213 198 190 230 245 292 331 345 359 354 352 7
203 200 195 194 198 197 200 206 207 207 209 210 212 213 207 205 219 227 232 234 232 228 224 224 230 233 223 208 204 208 209 191 187 185 204 238 258 299 328 341 338 348 348
205 202 200 198 198 200 201 204 208 210 211 213 215 216 217 216 218 224 226 230 233 232 229 227 228 228 222 214 209 199 143 133 158 196 188 214 228 256 289 312 325 330 337
210 205 202 201 201 202 203 205 207 210 213 215 217 219 221 224 225 226 228 230 231 230 231 230 227 223 216 211 203 169 146 151 159 183 227 214 219 231 253 278 299 305 320